This is the latest recevied weather packets stored in our database for station/object WC4PEM-15. If no packets are shown the sender has not sent any weather packets the latest 10 day(s).
| Time | Temp. | Humidity | Pressure | Rain* | Wind** | Luminosity | Snow |
|---|---|---|---|---|---|---|---|
| 1777220440 | 27.22° C | 66% | 1012 hPa | 0 mm | - | - | - |
| 1777220140 | 27.78° C | 64% | 1011.9 hPa | 0 mm | - | - | - |
| 1777219840 | 27.78° C | 65% | 1012.1 hPa | 0 mm | - | - | - |
| 1777219540 | 27.22° C | 67% | 1012.1 hPa | 0 mm | - | - | - |
| 1777219240 | 27.22° C | 67% | 1012.3 hPa | 0 mm | - | - | - |
| 1777218940 | 26.67° C | 68% | 1012.2 hPa | 0 mm | - | - | - |
| 1777218640 | 26.67° C | 68% | 1012.2 hPa | 0 mm | - | - | - |
| 1777218340 | 26.11° C | 70% | 1012.4 hPa | 0 mm | - | - | - |
| 1777218040 | 26.11° C | 69% | 1012.3 hPa | 0 mm | - | - | - |
| 1777217941 | 26.67° C | 69% | 1012.5 hPa | 0 mm | - | - | - |
| 1777217740 | 26.67° C | 69% | 1012.5 hPa | 0 mm | - | - | - |
| 1777217440 | 26.11° C | 71% | 1012.4 hPa | 0 mm | - | - | - |
| 1777217140 | 26.11° C | 72% | 1012.2 hPa | 0 mm | - | - | - |
| 1777217058 | 25.56° C | 73% | 1012.3 hPa | 0 mm | - | - | - |
| 1777216840 | 25.56° C | 73% | 1012.3 hPa | 0 mm | - | - | - |
| 1777216540 | 25.56° C | 74% | 1012.5 hPa | 0 mm | - | - | - |
| 1777216246 | 25.56° C | 75% | 1012.4 hPa | 0 mm | - | - | - |
| 1777216240 | 25.56° C | 74% | 1012.5 hPa | 0 mm | - | - | - |
| 1777215940 | 25.56° C | 75% | 1012.4 hPa | 0 mm | - | - | - |
| 1777215807 | 25° C | 75% | 1012.4 hPa | 0 mm | - | - | - |
| 1777215640 | 25° C | 75% | 1012.4 hPa | 0 mm | - | - | - |
| 1777215544 | 25.56° C | 75% | 1012.4 hPa | 0 mm | - | - | - |
| 1777215340 | 25.56° C | 75% | 1012.4 hPa | 0 mm | - | - | - |
| 1777215219 | 25.56° C | 76% | 1012.6 hPa | 0 mm | - | - | - |
| 1777215040 | 25.56° C | 76% | 1012.6 hPa | 0 mm | - | - | - |
* Rain latest hour (hover to see other rain measurements)
** Current wind speed in m/s (hover to see current wind gust speed)